Volver al catálogo

USA 81

ActivoMilitarPO
NORAD 21949·PAYLOAD·🇺🇸 United States

Lanzado Apr 25, 1992 desde Vandenberg Space Force Base

Loading…

Próximos Pases (próximas 24 horas)

TLE

ActualizadoSource: Space-Track

Época: Sep 14, 2026, 14:53 UTC

1 21949U 92023A   26257.62036637  .00000134  00000-0  42096-4 0  9999
2 21949  85.0105  22.3716 0002424 108.4323 251.7133 14.32417505121839

Sigue USA 81 en tiempo real con AllMySat

Download on the App Store